Weather History for Danbury, CT

Change the Weather History Date:

Friday, June 21, 2013

  Actual Average Record
Temperature  
Mean Temperature 70 °F -  
Max Temperature 81 °F 80 °F 93 °F (2012)
Min Temperature 60 °F 57 °F 42 °F (1968)
Cooling Degree Days 6    
Growing Degree Days 20 (Base 50)    
Moisture  
Dew Point 55 °F    
Average Humidity 60    
Maximum Humidity 75    
Minimum Humidity 47    
Precipitation  
Precipitation 0.00 in - - ()
Sea Level Pressure  
Sea Level Pressure 30.27 in    
Wind  
Wind Speed 4 mph (SW)    
Max Wind Speed 12 mph    
Max Gust Speed 17 mph    
Visibility 10 miles    
Events      
Averages and records for this station are not official NWS values.
T = Trace of Precipitation, MM = Missing Value Source: NWS Daily Summary

Daily Weather History Graph

Daily Weather History Graph

Search for Another Location

Airport:

Trip Planner

Search our weather history database for the weather conditions in past years. The results will help you decide how hot, cold, wet, or windy it might be!

Date:

Astronomy

Jun. 21, 2013 Rise Set
Actual Time 5:20 AM EDT 8:30 PM EDT
Civil Twilight 4:46 AM EDT 9:04 PM EDT
Nautical Twilight 4:03 AM EDT 9:48 PM EDT
Astronomical Twilight 3:11 AM EDT 10:40 PM EDT
Moon 6:37 PM EDT 3:34 AM EDT
Length of Visible Light 16h 18m
Length of Day
15h 10m
Waxing Gibbous, 95% of the Moon is Illuminated
Jun 21
Waxing Gibbous
Jun 23
Full
Jun 30
Last Quarter
Jul 8
New
Jul 15
First Quarter

Hourly Weather History & Observations

Time (EDT) Temp. Heat Index Dew Point Humidity Pressure Visibility Wind Dir Wind Speed Gust Speed Precip Events Conditions
12:53 AM 61.0 °F - 52.0 °F 72% 30.28 in 10.0 mi Calm Calm - N/A   Clear
1:53 AM 61.0 °F - 53.1 °F 75% 30.27 in 10.0 mi Calm Calm - N/A   Clear
2:53 AM 61.0 °F - 51.1 °F 70% 30.27 in 10.0 mi Calm Calm - N/A   Clear
3:53 AM 61.0 °F - 50.0 °F 67% 30.27 in 10.0 mi Calm Calm - N/A   Clear
4:53 AM 60.1 °F - 48.9 °F 67% 30.27 in 10.0 mi Calm Calm - N/A   Clear
5:53 AM 60.1 °F - 48.9 °F 67% 30.29 in 10.0 mi West 3.5 mph - N/A   Clear
6:53 AM 63.0 °F - 51.1 °F 65% 30.29 in 10.0 mi WSW 5.8 mph - N/A   Clear
7:53 AM 66.0 °F - 51.1 °F 59% 30.29 in 10.0 mi WSW 8.1 mph - N/A   Clear
8:53 AM 68.0 °F - 54.0 °F 61% 30.30 in 10.0 mi WSW 9.2 mph - N/A   Clear
9:53 AM 71.1 °F - 57.0 °F 61% 30.29 in 10.0 mi SW 5.8 mph - N/A   Clear
10:53 AM 73.0 °F - 57.9 °F 59% 30.29 in 10.0 mi WSW 4.6 mph - N/A   Scattered Clouds
11:53 AM 77.0 °F - 61.0 °F 58% 30.30 in 10.0 mi SSW 8.1 mph - N/A   Clear
12:53 PM 78.1 °F - 61.0 °F 56% 30.29 in 10.0 mi South 9.2 mph - N/A   Clear
1:53 PM 78.1 °F - 60.1 °F 54% 30.27 in 10.0 mi SW 8.1 mph - N/A   Scattered Clouds
2:53 PM 81.0 °F 81.6 °F 60.1 °F 49% 30.25 in 10.0 mi SW 11.5 mph 17.3 mph N/A   Partly Cloudy
3:53 PM 81.0 °F 81.3 °F 59.0 °F 47% 30.24 in 10.0 mi SW 8.1 mph - N/A   Scattered Clouds
4:53 PM 80.1 °F 80.6 °F 57.9 °F 47% 30.24 in 10.0 mi SSW 9.2 mph - N/A   Partly Cloudy
5:53 PM 78.1 °F - 57.0 °F 48% 30.24 in 10.0 mi South 10.4 mph - N/A   Clear
6:53 PM 75.9 °F - 57.0 °F 52% 30.25 in 10.0 mi South 10.4 mph - N/A   Clear
7:53 PM 73.0 °F - 55.0 °F 53% 30.26 in 10.0 mi South 8.1 mph - N/A   Clear
8:53 PM 70.0 °F - 54.0 °F 57% 30.25 in 10.0 mi SSW 6.9 mph - N/A   Clear
9:53 PM 68.0 °F - 53.1 °F 59% 30.26 in 10.0 mi WSW 3.5 mph - N/A   Clear
10:53 PM 66.9 °F - 52.0 °F 59% 30.26 in 10.0 mi WSW 3.5 mph - N/A   Clear
11:53 PM 64.0 °F - 53.1 °F 67% 30.26 in 10.0 mi Calm Calm - N/A   Clear